Location: Eastlake (historical)
(39.0077°N, 122.6678°W)
Time: 09:51:24
(UTC+00:00)

Genesis I - Pass Details

Date: 25 November 2020
Orbit: 493 x 528 km, 64.5° (Epoch: 26 January)

Event Time Altitude Azimuth Distance (km) Brightness Sun altitude
Rises 14:22:58 0° 216° (SW) 2,562 6.6 -8.4°
Reaches altitude 10° 14:25:06 10° 219° (SW) 1,687 5.6 -8.0°
Maximum altitude 14:28:51 68° 303° (WNW) 539 3.1 -7.3°
Drops below altitude 10° 14:32:40 10° 27° (NNE) 1,715 5.9 -6.6°
Sets 14:34:52 0° 30° (NNE) 2,609 6.9 -6.2°
